PAL1805 RPLL-RPMD

Flight info

Callsign PAL1805
Flight time 1h 21m
Altitude 39000
Route IPATA4V IPATA B462 MASBA W9A BN W9 RIMAR RIMAR2R
Aircraft B77W/H-SDE1E2E3FGHIJ2J3J4J5M1RWXY/LB1D1

Departure

Time 2026-04-30 07:08
Airport Ninoy Aquino International Airport (RPLL)

Arrival

Time 2026-04-30 08:30
Airport Francisco Bangoy International Airport (RPMD)
Time Latitude Longitude Altitude Speed Heading
2026-04-30 06:27 14.50371 121.00503 88 ft 0 kts 308°
2026-04-30 06:57 14.50367 121.00507 87 ft 2 kts 308°
2026-04-30 06:57 14.50358 121.00519 87 ft 2 kts 308°
2026-04-30 06:57 14.50349 121.00531 87 ft 2 kts 308°
2026-04-30 06:58 14.50339 121.00543 87 ft 1 kts 308°
2026-04-30 06:58 14.50333 121.00552 87 ft 2 kts 292°
2026-04-30 06:58 14.50332 121.00566 87 ft 1 kts 247°
2026-04-30 06:58 14.50336 121.00572 87 ft 0 kts 239°
2026-04-30 06:59 14.50336 121.00573 87 ft 0 kts 239°
2026-04-30 07:02 14.50332 121.00565 87 ft 3 kts 239°
2026-04-30 07:03 14.50313 121.00532 87 ft 6 kts 241°
2026-04-30 07:03 14.50286 121.00482 87 ft 8 kts 241°
2026-04-30 07:03 14.50257 121.00429 87 ft 8 kts 240°
2026-04-30 07:03 14.50228 121.00377 87 ft 8 kts 240°
2026-04-30 07:04 14.50197 121.00335 87 ft 7 kts 199°
2026-04-30 07:04 14.50152 121.00341 87 ft 4 kts 174°
2026-04-30 07:04 14.50118 121.00325 87 ft 5 kts 231°
2026-04-30 07:04 14.50097 121.00289 87 ft 7 kts 239°
2026-04-30 07:05 14.50031 121.00172 87 ft 10 kts 240°
2026-04-30 07:05 14.49989 121.00096 87 ft 13 kts 240°
2026-04-30 07:05 14.49943 121.00011 87 ft 7 kts 240°
2026-04-30 07:06 14.49912 120.99970 87 ft 7 kts 211°
2026-04-30 07:06 14.49865 120.99971 87 ft 7 kts 153°
2026-04-30 07:06 14.49822 120.99998 87 ft 7 kts 146°
2026-04-30 07:06 14.49803 121.00037 87 ft 6 kts 82°
2026-04-30 07:07 14.49822 121.00079 87 ft 6 kts 60°
2026-04-30 07:07 14.49852 121.00133 87 ft 14 kts 60°
2026-04-30 07:07 14.50006 121.00414 87 ft 82 kts 60°
2026-04-30 07:07 14.50418 121.01152 87 ft 151 kts 60°
2026-04-30 07:08 14.50998 121.02216 398 ft 180 kts 64°
2026-04-30 07:08 14.51623 121.03355 1117 ft 190 kts 63°
2026-04-30 07:08 14.52274 121.04510 1868 ft 191 kts 63°
2026-04-30 07:08 14.52966 121.05749 2323 ft 206 kts 62°
2026-04-30 07:09 14.53695 121.07079 2810 ft 221 kts 62°
2026-04-30 07:09 14.54494 121.08494 3334 ft 236 kts 62°
2026-04-30 07:09 14.55008 121.10124 3817 ft 250 kts 89°
2026-04-30 07:09 14.54637 121.11910 4220 ft 267 kts 118°
2026-04-30 07:10 14.53458 121.13416 4862 ft 274 kts 134°
2026-04-30 07:10 14.52101 121.14803 5616 ft 278 kts 135°
2026-04-30 07:10 14.50715 121.16211 6334 ft 282 kts 134°
2026-04-30 07:10 14.49325 121.17630 7084 ft 285 kts 134°
2026-04-30 07:11 14.47910 121.19069 7847 ft 287 kts 134°
2026-04-30 07:11 14.46482 121.20525 8580 ft 290 kts 135°
2026-04-30 07:11 14.45048 121.21987 9301 ft 292 kts 135°
2026-04-30 07:11 14.43601 121.23462 10036 ft 295 kts 135°
2026-04-30 07:12 14.42115 121.24976 10576 ft 307 kts 135°
2026-04-30 07:12 14.40549 121.26571 11022 ft 324 kts 135°
2026-04-30 07:12 14.38926 121.28225 11489 ft 339 kts 135°
2026-04-30 07:12 14.37192 121.29990 11936 ft 354 kts 134°
2026-04-30 07:13 14.35411 121.31803 12384 ft 368 kts 134°
2026-04-30 07:13 14.33559 121.33689 12894 ft 382 kts 134°
2026-04-30 07:13 14.31652 121.35631 13628 ft 390 kts 134°
2026-04-30 07:13 14.29692 121.37624 14508 ft 395 kts 134°
2026-04-30 07:14 14.27754 121.39595 15448 ft 400 kts 134°
2026-04-30 07:14 14.25757 121.41626 16374 ft 405 kts 134°
2026-04-30 07:14 14.23751 121.43665 17265 ft 410 kts 134°
2026-04-30 07:14 14.21706 121.45743 18135 ft 415 kts 134°
2026-04-30 07:15 14.19652 121.47829 18947 ft 421 kts 134°
2026-04-30 07:15 14.17564 121.49951 19744 ft 426 kts 134°
2026-04-30 07:15 14.15420 121.52128 20501 ft 432 kts 134°
2026-04-30 07:15 14.13284 121.54296 21253 ft 437 kts 135°
2026-04-30 07:16 14.11098 121.56515 21967 ft 443 kts 135°
2026-04-30 07:16 14.08906 121.58738 22687 ft 448 kts 135°
2026-04-30 07:16 14.06676 121.61000 23408 ft 453 kts 135°
2026-04-30 07:16 14.04421 121.63286 24099 ft 458 kts 135°
2026-04-30 07:17 14.02219 121.65517 24772 ft 463 kts 136°
2026-04-30 07:17 13.99908 121.67859 25480 ft 468 kts 136°
2026-04-30 07:17 13.95234 121.72591 26829 ft 478 kts 136°
2026-04-30 07:18 13.92834 121.75021 27477 ft 484 kts 136°
2026-04-30 07:18 13.90422 121.77462 28102 ft 490 kts 136°
2026-04-30 07:18 13.87988 121.79923 28723 ft 495 kts 136°
2026-04-30 07:18 13.85621 121.82512 29373 ft 500 kts 131°
2026-04-30 07:19 13.83395 121.85226 30276 ft 497 kts 131°
2026-04-30 07:19 13.81183 121.87947 31432 ft 489 kts 131°
2026-04-30 07:19 13.79037 121.90585 32531 ft 480 kts 131°
2026-04-30 07:19 13.76913 121.93192 33515 ft 475 kts 131°
2026-04-30 07:20 13.74789 121.95798 34265 ft 476 kts 131°
2026-04-30 07:20 13.72676 121.98386 34894 ft 477 kts 131°
2026-04-30 07:20 13.70528 122.01018 35557 ft 478 kts 131°
2026-04-30 07:20 13.68373 122.03656 36262 ft 476 kts 131°
2026-04-30 07:21 13.66256 122.06248 36911 ft 475 kts 131°
2026-04-30 07:21 13.64127 122.08853 37454 ft 475 kts 131°
2026-04-30 07:21 13.62015 122.11437 37915 ft 476 kts 131°
2026-04-30 07:21 13.59883 122.14042 38363 ft 476 kts 131°
2026-04-30 07:22 13.55600 122.19276 38876 ft 478 kts 131°
2026-04-30 07:22 13.51364 122.24449 38882 ft 473 kts 131°
2026-04-30 07:23 13.47112 122.29638 38880 ft 473 kts 131°
2026-04-30 07:23 13.42893 122.34784 38882 ft 473 kts 131°
2026-04-30 07:24 13.38650 122.39955 38880 ft 473 kts 131°
2026-04-30 07:24 13.34406 122.45126 38879 ft 473 kts 130°
2026-04-30 07:25 13.30178 122.50272 38881 ft 472 kts 130°
2026-04-30 07:25 13.25934 122.55436 38872 ft 472 kts 130°
2026-04-30 07:26 13.21692 122.60595 38874 ft 472 kts 130°
2026-04-30 07:26 13.17468 122.65727 38874 ft 472 kts 131°
2026-04-30 07:27 13.13236 122.70867 38868 ft 471 kts 131°
2026-04-30 07:27 13.08984 122.76029 38869 ft 471 kts 131°
2026-04-30 07:28 13.04763 122.81150 38868 ft 472 kts 131°
2026-04-30 07:28 13.00525 122.86288 38871 ft 472 kts 131°
2026-04-30 07:29 12.96296 122.91412 38867 ft 471 kts 131°
2026-04-30 07:29 12.92076 122.96523 38868 ft 470 kts 131°
2026-04-30 07:30 12.85849 123.04058 38869 ft 470 kts 131°
2026-04-30 07:31 12.81608 123.09187 38865 ft 470 kts 131°
2026-04-30 07:31 12.77400 123.14273 38871 ft 470 kts 131°
2026-04-30 07:32 12.73168 123.19385 38868 ft 470 kts 131°
2026-04-30 07:32 12.68954 123.24473 38863 ft 469 kts 131°
2026-04-30 07:33 12.64729 123.29570 38862 ft 470 kts 131°
2026-04-30 07:33 12.60514 123.34653 38862 ft 470 kts 131°
2026-04-30 07:34 12.56277 123.39759 38858 ft 469 kts 131°
2026-04-30 07:34 12.52049 123.44852 38857 ft 468 kts 131°
2026-04-30 07:35 12.47842 123.49917 38858 ft 469 kts 131°
2026-04-30 07:35 12.43626 123.54989 38859 ft 469 kts 131°
2026-04-30 07:36 12.39398 123.60070 38862 ft 468 kts 132°
2026-04-30 07:36 12.34445 123.64329 38865 ft 467 kts 149°
2026-04-30 07:37 12.28721 123.67566 38873 ft 466 kts 152°
2026-04-30 07:37 12.23003 123.70728 38875 ft 465 kts 152°
2026-04-30 07:38 12.17310 123.73873 38873 ft 465 kts 152°
2026-04-30 07:38 12.11629 123.77007 38869 ft 466 kts 152°
2026-04-30 07:39 12.05931 123.80148 38868 ft 464 kts 152°
2026-04-30 07:39 12.00192 123.83310 38874 ft 467 kts 152°
2026-04-30 07:40 11.94485 123.86453 38867 ft 465 kts 152°
2026-04-30 07:40 11.88800 123.89581 38869 ft 467 kts 152°
2026-04-30 07:41 11.83068 123.92734 38868 ft 466 kts 152°
2026-04-30 07:41 11.78336 123.95336 38870 ft 464 kts 151°
2026-04-30 07:42 11.72644 123.98464 38868 ft 466 kts 151°
2026-04-30 07:42 11.66929 124.01604 38870 ft 465 kts 151°
2026-04-30 07:43 11.61219 124.04739 38868 ft 465 kts 151°
2026-04-30 07:43 11.55488 124.07884 38870 ft 465 kts 151°
2026-04-30 07:44 11.49826 124.10990 38869 ft 464 kts 151°
2026-04-30 07:44 11.44109 124.14125 38866 ft 464 kts 151°
2026-04-30 07:45 11.38400 124.17254 38867 ft 465 kts 151°
2026-04-30 07:45 11.32706 124.20372 38866 ft 463 kts 151°
2026-04-30 07:46 11.27051 124.23470 38865 ft 464 kts 151°
2026-04-30 07:46 11.21355 124.26587 38869 ft 463 kts 151°
2026-04-30 07:47 11.15652 124.29706 38866 ft 463 kts 151°
2026-04-30 07:47 11.09987 124.32804 38863 ft 462 kts 150°
2026-04-30 07:48 11.04304 124.35895 38865 ft 463 kts 151°
2026-04-30 07:48 10.98603 124.38964 38869 ft 463 kts 151°
2026-04-30 07:49 10.92903 124.42032 38872 ft 464 kts 151°
2026-04-30 07:49 10.87159 124.45123 38876 ft 463 kts 151°
2026-04-30 07:50 10.81453 124.48193 38874 ft 463 kts 150°
2026-04-30 07:50 10.75756 124.51260 38874 ft 463 kts 150°
2026-04-30 07:51 10.70084 124.54342 38864 ft 462 kts 150°
2026-04-30 07:51 10.64369 124.57447 38864 ft 462 kts 150°
2026-04-30 07:52 10.58684 124.60534 38863 ft 463 kts 150°
2026-04-30 07:52 10.52995 124.63621 38855 ft 464 kts 150°
2026-04-30 07:53 10.47292 124.66714 38856 ft 463 kts 150°
2026-04-30 07:53 10.41618 124.69790 38861 ft 463 kts 150°
2026-04-30 07:54 10.35917 124.72879 38863 ft 464 kts 150°
2026-04-30 07:54 10.30192 124.75980 38864 ft 463 kts 150°
2026-04-30 07:55 10.24530 124.79046 38864 ft 464 kts 150°
2026-04-30 07:55 10.18802 124.82145 38865 ft 464 kts 150°
2026-04-30 07:56 10.13101 124.85229 38868 ft 464 kts 150°
2026-04-30 07:56 10.07404 124.88309 38866 ft 465 kts 150°
2026-04-30 07:57 10.01691 124.91398 38867 ft 464 kts 150°
2026-04-30 07:57 9.96071 124.94434 38862 ft 464 kts 150°
2026-04-30 07:58 9.90378 124.97510 38866 ft 465 kts 150°
2026-04-30 07:58 9.84668 125.00592 38864 ft 465 kts 150°
2026-04-30 07:59 9.78937 125.03685 38864 ft 465 kts 150°
2026-04-30 07:59 9.73227 125.06763 38860 ft 465 kts 150°
2026-04-30 08:00 9.64669 125.11372 38859 ft 464 kts 150°
2026-04-30 08:00 9.58936 125.14455 38863 ft 464 kts 150°
2026-04-30 08:01 9.53233 125.17497 38859 ft 463 kts 150°
2026-04-30 08:01 9.47524 125.20538 38861 ft 463 kts 150°
2026-04-30 08:02 9.38956 125.25103 38856 ft 465 kts 150°
2026-04-30 08:03 9.27490 125.31210 38856 ft 463 kts 150°
2026-04-30 08:04 9.21766 125.34256 38853 ft 465 kts 150°
2026-04-30 08:04 9.17495 125.36529 38852 ft 463 kts 150°
2026-04-30 08:05 9.11777 125.39571 38851 ft 465 kts 150°
2026-04-30 08:05 9.07048 125.42084 38518 ft 461 kts 150°
2026-04-30 08:05 9.04175 125.43613 38034 ft 465 kts 150°
2026-04-30 08:06 9.01330 125.45125 37577 ft 469 kts 150°
2026-04-30 08:06 8.98403 125.46674 37260 ft 470 kts 152°
2026-04-30 08:06 8.95362 125.47907 37040 ft 471 kts 161°
2026-04-30 08:06 8.92172 125.48634 36832 ft 473 kts 170°
2026-04-30 08:07 8.88907 125.49018 36584 ft 474 kts 172°
2026-04-30 08:07 8.85607 125.49357 36307 ft 475 kts 172°
2026-04-30 08:07 8.82317 125.49690 35973 ft 473 kts 172°
2026-04-30 08:07 8.79039 125.50022 35134 ft 473 kts 172°
2026-04-30 08:08 8.75704 125.50361 34219 ft 474 kts 172°
2026-04-30 08:08 8.72424 125.50693 33362 ft 473 kts 172°
2026-04-30 08:08 8.69134 125.51028 32524 ft 472 kts 172°
2026-04-30 08:08 8.66956 125.51248 31994 ft 472 kts 172°
2026-04-30 08:09 8.62884 125.51663 30929 ft 491 kts 172°
2026-04-30 08:09 8.59405 125.52017 30174 ft 494 kts 172°
2026-04-30 08:09 8.56011 125.52361 29705 ft 487 kts 172°
2026-04-30 08:09 8.52646 125.52701 29166 ft 483 kts 172°
2026-04-30 08:10 8.49281 125.53018 28587 ft 480 kts 172°
2026-04-30 08:10 8.45977 125.53312 28031 ft 475 kts 173°
2026-04-30 08:10 8.42699 125.53602 27463 ft 469 kts 173°
2026-04-30 08:10 8.39421 125.53893 26897 ft 464 kts 172°
2026-04-30 08:11 8.36222 125.54178 26340 ft 458 kts 172°
2026-04-30 08:11 8.33061 125.54460 25769 ft 453 kts 172°
2026-04-30 08:11 8.29928 125.54739 25206 ft 448 kts 172°
2026-04-30 08:11 8.26800 125.55019 24640 ft 443 kts 172°
2026-04-30 08:12 8.23747 125.55293 24076 ft 438 kts 172°
2026-04-30 08:12 8.20714 125.55564 23515 ft 433 kts 172°
2026-04-30 08:12 8.17722 125.55832 22946 ft 429 kts 172°
2026-04-30 08:12 8.14771 125.56096 22375 ft 425 kts 172°
2026-04-30 08:13 8.11791 125.56364 21805 ft 421 kts 172°
2026-04-30 08:13 8.08902 125.56622 21235 ft 418 kts 172°
2026-04-30 08:13 8.05981 125.56884 20647 ft 414 kts 172°
2026-04-30 08:13 8.03122 125.57140 20079 ft 411 kts 172°
2026-04-30 08:14 8.00276 125.57395 19515 ft 408 kts 172°
2026-04-30 08:14 7.97409 125.57457 18923 ft 408 kts 181°
2026-04-30 08:14 7.94636 125.57008 18350 ft 409 kts 191°
2026-04-30 08:14 7.91868 125.56235 17782 ft 407 kts 193°
2026-04-30 08:15 7.89145 125.55437 17202 ft 404 kts 193°
2026-04-30 08:15 7.86454 125.54653 16641 ft 402 kts 193°
2026-04-30 08:15 7.83764 125.53861 16053 ft 400 kts 194°
2026-04-30 08:15 7.81092 125.53073 15466 ft 398 kts 193°
2026-04-30 08:16 7.78432 125.52295 14873 ft 396 kts 193°
2026-04-30 08:16 7.75782 125.51524 14302 ft 393 kts 193°
2026-04-30 08:16 7.73153 125.50746 13736 ft 391 kts 193°
2026-04-30 08:16 7.70538 125.49976 13137 ft 389 kts 193°
2026-04-30 08:17 7.67940 125.49213 12589 ft 386 kts 194°
2026-04-30 08:17 7.65391 125.48463 12105 ft 382 kts 194°
2026-04-30 08:17 7.62833 125.47712 11548 ft 379 kts 194°
2026-04-30 08:17 7.60290 125.46967 10988 ft 376 kts 193°
2026-04-30 08:18 7.57810 125.46240 10802 ft 362 kts 193°
2026-04-30 08:18 7.55432 125.45541 10715 ft 346 kts 193°
2026-04-30 08:18 7.53161 125.44876 10588 ft 333 kts 193°
2026-04-30 08:18 7.50960 125.44231 10447 ft 321 kts 193°
2026-04-30 08:19 7.48844 125.43612 10302 ft 310 kts 193°
2026-04-30 08:19 7.46817 125.43019 10164 ft 300 kts 193°
2026-04-30 08:19 7.44807 125.42432 9855 ft 297 kts 193°
2026-04-30 08:19 7.42813 125.41849 9464 ft 298 kts 193°
2026-04-30 08:20 7.40828 125.41269 9084 ft 298 kts 193°
2026-04-30 08:20 7.38819 125.40681 8717 ft 297 kts 193°
2026-04-30 08:20 7.36815 125.40095 8347 ft 297 kts 194°
2026-04-30 08:20 7.34837 125.39578 7970 ft 294 kts 184°
2026-04-30 08:21 7.32808 125.39665 7683 ft 288 kts 169°
2026-04-30 08:21 7.30831 125.40037 7375 ft 287 kts 167°
2026-04-30 08:21 7.29460 125.40327 7238 ft 286 kts 168°
2026-04-30 08:21 7.27550 125.40736 7105 ft 276 kts 168°
2026-04-30 08:22 7.25633 125.41146 6602 ft 281 kts 168°
2026-04-30 08:22 7.23738 125.41548 6380 ft 273 kts 168°
2026-04-30 08:22 7.21870 125.41944 5928 ft 275 kts 168°
2026-04-30 08:22 7.19988 125.42343 5482 ft 274 kts 167°
2026-04-30 08:23 7.18141 125.42729 5258 ft 265 kts 166°
2026-04-30 08:23 7.16316 125.43111 5057 ft 265 kts 166°
2026-04-30 08:23 7.14514 125.43494 4854 ft 265 kts 166°
2026-04-30 08:23 7.12707 125.43882 4675 ft 264 kts 166°
2026-04-30 08:24 7.10903 125.44260 4483 ft 264 kts 166°
2026-04-30 08:24 7.09093 125.44622 4305 ft 260 kts 166°
2026-04-30 08:24 7.07351 125.45032 4105 ft 252 kts 155°
2026-04-30 08:24 7.05893 125.45953 3890 ft 245 kts 139°
2026-04-30 08:25 7.04590 125.47052 3643 ft 241 kts 137°
2026-04-30 08:25 7.03322 125.48149 3362 ft 237 kts 137°
2026-04-30 08:25 7.02264 125.49385 3080 ft 229 kts 113°
2026-04-30 08:25 7.01967 125.50907 2849 ft 220 kts 88°
2026-04-30 08:26 7.02338 125.52375 2617 ft 213 kts 63°
2026-04-30 08:26 7.03141 125.53592 2423 ft 205 kts 52°
2026-04-30 08:26 7.04036 125.54681 2225 ft 194 kts 50°
2026-04-30 08:26 7.04892 125.55688 2053 ft 184 kts 50°
2026-04-30 08:27 7.05701 125.56621 1875 ft 167 kts 50°
2026-04-30 08:27 7.06421 125.57471 1740 ft 151 kts 49°
2026-04-30 08:27 7.07097 125.58247 1550 ft 145 kts 49°
2026-04-30 08:27 7.07759 125.59019 1347 ft 143 kts 49°
2026-04-30 08:28 7.08419 125.59776 1032 ft 142 kts 49°
2026-04-30 08:28 7.09063 125.60515 815 ft 142 kts 49°
2026-04-30 08:28 7.09709 125.61286 647 ft 143 kts 49°
2026-04-30 08:28 7.10359 125.62032 505 ft 143 kts 47°
2026-04-30 08:29 7.11012 125.62779 341 ft 142 kts 48°
2026-04-30 08:29 7.11661 125.63536 175 ft 143 kts 49°
2026-04-30 08:29 7.12241 125.64214 128 ft 118 kts 50°
2026-04-30 08:29 7.12677 125.64724 128 ft 74 kts 49°
2026-04-30 08:30 7.12915 125.65001 129 ft 30 kts 49°
2026-04-30 08:30 7.13047 125.65154 129 ft 27 kts 49°
2026-04-30 08:30 7.13170 125.65297 129 ft 26 kts 49°
2026-04-30 08:30 7.13286 125.65431 129 ft 21 kts 49°
2026-04-30 08:31 7.13350 125.65496 129 ft 10 kts 28°
2026-04-30 08:31 7.13419 125.65511 129 ft 9 kts 19°
2026-04-30 08:31 7.13442 125.65562 129 ft 7 kts 124°
2026-04-30 08:31 7.13396 125.65556 129 ft 8 kts 224°
2026-04-30 08:32 7.13353 125.65512 129 ft 9 kts 228°
2026-04-30 08:32 7.13306 125.65456 129 ft 12 kts 230°
2026-04-30 08:32 7.13244 125.65383 129 ft 14 kts 229°
2026-04-30 08:32 7.13176 125.65305 129 ft 14 kts 229°
2026-04-30 08:33 7.13110 125.65227 129 ft 14 kts 229°
2026-04-30 08:33 7.13046 125.65152 129 ft 14 kts 229°
2026-04-30 08:33 7.12981 125.65077 129 ft 13 kts 229°
2026-04-30 08:33 7.12919 125.65005 129 ft 13 kts 229°
2026-04-30 08:34 7.12881 125.64959 129 ft 5 kts 239°
2026-04-30 08:34 7.12883 125.64924 129 ft 5 kts 303°
2026-04-30 08:34 7.12900 125.64906 129 ft 6 kts 316°
2026-04-30 08:34 7.12906 125.64900 123 ft 6 kts 316°
2026-04-30 08:35 7.12942 125.64866 123 ft 7 kts 316°
2026-04-30 08:35 7.12982 125.64831 123 ft 7 kts 320°
2026-04-30 08:35 7.13012 125.64790 123 ft 7 kts 275°
2026-04-30 08:35 7.12990 125.64743 123 ft 8 kts 231°
2026-04-30 08:36 7.12953 125.64699 123 ft 8 kts 229°
2026-04-30 08:36 7.12932 125.64665 123 ft 4 kts 268°
2026-04-30 08:36 7.12947 125.64638 123 ft 5 kts 320°
2026-04-30 08:36 7.12967 125.64620 123 ft 2 kts 320°
2026-04-30 08:37 7.12976 125.64613 123 ft 0 kts 319°
2026-04-30 08:37 7.12979 125.64610 123 ft 0 kts 319°